Meteo Giornale » Osservazioni meteo Stati Uniti (USA) » Sherman-Denison
ore: 07:50 - Osservazioni Meteo Sherman-Denison
Lat. 33° 43' N Lon. 96° 40' W Alt. 228 metri s.l.m.
27 °C
Sereno
Temp. 24 Ore
26 °C
38 °C
Sud/Sud-Est
13 Km/h
Dew point 20 °C
Umidità 65 %
Visibilità 10 Km
Il sole sorge alle ore 07:00
Il sole tramonta alle ore 19:52
| Data e Ora | Cielo e Fenomeni | T °C | DP °C | Um. % | Pres. hPa | Vis. km | Vento km/h | |
|---|---|---|---|---|---|---|---|---|
| Oggi h: 07:50 | Sereno | 27 | 20 | 65 | 1017 | 10 | S/SE 13 | |
| Oggi h: 06:50 | Sereno | 26 | 19 | 65 | 1017 | 10 | S/SE 9.3 | |
| Oggi h: 06:35 | Sereno | 26 | 19 | 65 | 1017 | 10 | S/SE 11.1 | |
| Oggi h: 06:15 | Sereno | 26 | 19 | 65 | 1017 | 10 | S/SE 7.4 | |
| Oggi h: 05:55 | Sereno | 27 | 19 | 61 | 1017 | 10 | S/SE 13 | |
| Oggi h: 05:35 | Sereno | 27 | 19 | 61 | 1017 | 10 | S/SE 11.1 | |
| Oggi h: 05:15 | Sereno | 27 | 19 | 61 | 1017 | 10 | S/SE 13 | |
| Oggi h: 04:55 | Sereno | 27 | 19 | 61 | 1017 | 10 | S/SE 16.7 | |
| Oggi h: 04:35 | Sereno | 28 | 19 | 58 | 1017 | 10 | S/SE 16.7 | |
| Oggi h: 04:15 | Sereno | 28 | 19 | 58 | 1017 | 10 | S/SE 18.5 | |
| Oggi h: 03:55 | Sereno | 28 | 18 | 54 | 1017 | 10 | S/SE 18.5 | |
| Oggi h: 03:35 | Sereno | 29 | 19 | 54 | 1017 | 10 | S/SE 18.5 | |
| Oggi h: 03:15 | Sereno | 29 | 18 | 51 | 1016 | 10 | S/SE 20.3 | |
| Oggi h: 02:55 | Sereno | 29 | 18 | 51 | 1016 | 10 | S/SE 18.5 | |
| Oggi h: 02:35 | Sereno | 29 | 18 | 51 | 1016 | 10 | S/SE 14.8 | |
| Oggi h: 02:15 | Sereno | 30 | 18 | 48 | 1016 | 10 | S/SE 18.5 | |
| Oggi h: 01:55 | Sereno | 30 | 18 | 48 | 1016 | 10 | S/SE 14.8 | |
| Oggi h: 01:35 | Sereno | 29 | 18 | 51 | 1016 | 10 | S/SE 18.5 | |
| Oggi h: 01:15 | Sereno | 30 | 17 | 45 | 1016 | 10 | S/SE 18.5 | |
| Oggi h: 00:55 | Sereno | 30 | 17 | 45 | 1016 | 10 | S/SE 20.3 | |
| Oggi h: 00:35 | Sereno | 30 | 17 | 45 | 1016 | 10 | S/SE 20.3 | |
| Oggi h: 00:15 | Sereno | 30 | 17 | 45 | 1016 | 10 | S/SE 20.3 | |
| Ieri h: 23:55 | Sereno | 30 | 16 | 42 | 1016 | 10 | SE 14.8 | |
| Ieri h: 23:35 | Sereno | 30 | 16 | 42 | 1016 | 10 | SE 13 | |
| Ieri h: 23:15 | Sereno | 30 | 16 | 42 | 1015 | 10 | SE 13 | |
| Ieri h: 22:55 | Sereno | 30 | 16 | 42 | 1016 | 10 | E/SE 9.3 | |
| Ieri h: 22:35 | Sereno | 29 | 17 | 48 | 1015 | 10 | SE 7.4 | |
| Ieri h: 22:15 | Sereno | 31 | 16 | 40 | 1015 | 10 | SE 9.3 | |
| Ieri h: 21:55 | Sereno | 31 | 16 | 40 | 1015 | 10 | SE 9.3 | |
| Ieri h: 21:35 | Sereno | 32 | 16 | 38 | 1015 | 10 | S/SE 9.3 | |
| Ieri h: 21:15 | Sereno | 32 | 16 | 38 | 1015 | 10 | SE 11.1 | |
| Ieri h: 20:55 | Sereno | 32 | 16 | 38 | 1014 | 10 | S/SE 7.4 | |
| Ieri h: 20:35 | Sereno | 32 | 16 | 38 | 1014 | 10 | S/SE 7.4 | |
| Ieri h: 20:15 | Sereno | 33 | 15 | 33 | 1014 | 10 | S/SE 9.3 | |
| Ieri h: 19:55 | Sereno | 33 | 15 | 33 | 1014 | 10 | S 11.1 | |
| Ieri h: 19:35 | Sereno | 35 | 15 | 30 | 1014 | 10 | S 11.1 | |
| Ieri h: 19:15 | Sereno | 35 | 15 | 30 | 1014 | 10 | S 11.1 | |
| Ieri h: 18:50 | Sereno | 36 | 14 | 26 | 1014 | 10 | S 9.3 | |
| Ieri h: 17:50 | Sereno | 36 | 13 | 25 | 1014 | 10 | SE 13 | |
| Ieri h: 16:50 | Poco Nuvoloso | 37 | 13 | 23 | 1014 | 10 | S 14.8 | |
| Ieri h: 15:50 | Poco Nuvoloso | 38 | 14 | 24 | 1015 | 10 | S 20.3 | |
| Ieri h: 14:50 | Nuvoloso | 37 | 14 | 25 | 1016 | 10 | S/SE 18.5 | |
| Ieri h: 12:50 | Poco Nuvoloso | 36 | 16 | 30 | 1017 | 10 | S 18.5 | |
| Ieri h: 11:50 | Sereno | 36 | 16 | 30 | 1018 | 10 | O/SO 18.5 | |
| Ieri h: 10:50 | Sereno | 34 | 16 | 34 | 1018 | 10 | S/SO 22.2 | |
| Ieri h: 09:50 | Poco Nuvoloso | 32 | 18 | 43 | 1018 | 10 | S/SO 20.3 | |
| Ieri h: 08:50 | Sereno | 30 | 20 | 55 | 1017 | 10 | S 20.3 | |



